www.pogodaiklimat.ru

Погода и климат >> Архив погоды >> Япония >> Нагано


ПОГОДА в Нагано

  • Прогноз погоды в Нагано
  • Монитор погоды в Нагано

АРХИВ ПОГОДЫ в Нагано

Время (UTC), дата Ветер
(напр.,м/с)
 
Видим.   Явления Облачность Т
(С)
Тd
(С)
f
(%)
Тe
(С)
Тes
(С)
Комфортность P
(гПа)
Po
(гПа)
Тmin
(С)
Tmax
(С)
R
(мм)
R24
(мм)
S
(см)
13 10.09 З 2 20 км н/о +24.7 +22.0 85 +32 +32 очень
душно
1015.1 968.0
15 10.09 З 1 20 км н/о +24.7 +22.2 86 +32 +32 очень
душно
1015.2 968.1
16 10.09 З 2 20 км н/о +24.1 +22.2 89 +31 +31 очень
душно
1014.3 967.2
17 10.09 З 3 20 км н/о +25.9 +22.2 80 +34 +34 очень
душно
1013.6 966.8
18 10.09 СВ 1 16 км н/о +23.7 +22.3 92 +31 +31 очень
душно
1013.8 966.6
19 10.09 Ю 1 20 км н/о +24.0 +22.3 90 +31 +31 очень
душно
1013.6 966.5
20 10.09 СВ 1 20 км н/о +23.6 +22.2 92 +31 +31 очень
душно
1013.7 966.5
21 10.09 ЮВ 2 19 км н/о +23.9 +22.3 91 +31 +31 очень
душно
1014.0 966.8
22 10.09 СВ 1 17 км н/о +24.4 +22.5 89 +32 +32 очень
душно
1013.8 966.7
23 10.09 ЮЗ 2 20 км н/о +26.2 +22.5 80 +34 +34 очень
душно
1013.1 966.4
00 11.09 Ю 2 20 км н/о +28.0 +23.2 75 +38 +38 очень
душно
1012.3 965.9 +23.4
01 11.09 З 2 20 км н/о +29.6 +22.6 66 +39 +39 очень
душно
1011.4 965.3
02 11.09 З 3 20 км н/о +29.8 +21.7 62 +38 +38 очень
душно
1010.8 964.7
03 11.09 С 3 20 км слаб. дождь н/о +28.2 +23.6 76 +38 +38 очень
душно
1010.4 964.1
04 11.09 ЮЗ 2 2600 м сильн. дождь н/о +25.5 +23.7 90 +35 +35 очень
душно
1011.0 964.2
05 11.09 В 3 6000 м слаб. дождь н/о +24.9 +24.1 95 +34 +34 очень
душно
1010.7 963.9
06 11.09 СВ 4 20 км в посл. час дождь н/о +25.9 +23.4 86 +35 +35 очень
душно
1010.4 963.7 6
07 11.09 В 3 8000 м слаб. дождь н/о +24.9 +23.0 89 +33 +33 очень
душно
1010.5 963.7
08 11.09 В 3 9000 м слаб. дождь н/о +23.4 +22.7 96 +33 +33 очень
душно
1011.3 964.2
09 11.09 СВ 3 16 км в посл. час дождь н/о +23.4 +22.0 92 +32 +32 очень
душно
1011.2 964.1
10 11.09 В 3 13 км слаб. дождь н/о +22.4 +21.7 96 +30 +30 очень
душно
1012.2 964.9
11 11.09 В 4 9000 м слаб. дождь н/о +21.6 +20.6 94 +27 +27 душно 1013.4 965.9
12 11.09 В 2 20 км в посл. час дождь н/о +21.1 +20.6 97 +26 +26 душно 1014.0 966.3 +30.7 12
13 11.09 СВ 4 20 км н/о +21.2 +19.5 90 +26 +26 душно 1014.0 966.4
14 11.09 СВ 3 20 км н/о +20.8 +19.3 91 +26 +26 душно 1013.6 965.9
15 11.09 СВ 2 20 км н/о +21.1 +19.0 88 +25 +25 комфорт 1013.4 965.8
16 11.09 С 5 20 км в посл. час дождь н/о +20.8 +18.4 86 +25 +25 комфорт 1013.4 965.7
17 11.09 СВ 3 20 км н/о +20.5 +18.3 87 +25 +25 комфорт 1013.3 965.6
18 11.09 С 5 20 км {дождь} н/о +20.0 +17.4 85 +23 +23 комфорт 1013.6 965.8 0.0
19 11.09 СВ 4 20 км н/о +19.6 +16.8 84 +22 +22 комфорт 1014.1 966.2
20 11.09 СВ 5 20 км н/о +19.0 +15.7 81 +20 +20 1014.8 966.7
21 11.09 В 4 20 км н/о +18.6 +15.5 82 +19 +19 1015.6 967.4
23 11.09 СВ 4 20 км н/о +21.5 +15.6 69 +25 +25 комфорт 1015.5 967.8
00 12.09 СВ 4 20 км н/о +21.5 +15.1 67 +25 +25 комфорт 1015.7 968.0 +18.6 0.0
01 12.09 В 5 20 км н/о +22.5 +15.4 64 +26 +26 жарко 1015.3 967.8
02 12.09 СВ 4 20 км н/о +22.2 +14.1 60 +25 +25 комфорт 1015.0 967.5
03 12.09 СВ 4 20 км н/о +24.1 +14.5 55 +27 +27 жарко 1014.5 967.3
04 12.09 С 5 20 км н/о +23.9 +15.2 58 +27 +27 жарко 1014.2 967.0
05 12.09 С 4 20 км н/о +23.9 +14.9 57 +27 +27 жарко 1013.9 966.7
06 12.09 С 5 20 км н/о +23.9 +15.7 60 +27 +27 жарко 1013.3 966.2
07 12.09 С 7 20 км н/о +22.4 +14.5 61 +26 +26 жарко 1013.7 966.3
08 12.09 С 6 20 км н/о +20.8 +13.8 64 +23 +23 комфорт 1014.3 966.6
09 12.09 С 5 20 км н/о +19.8 +13.7 68 +22 +22 комфорт 1015.0 967.1
10 12.09 С 4 20 км н/о +19.5 +14.1 71 +21 +21 комфорт 1015.7 967.7
11 12.09 В 2 20 км н/о +19.6 +14.2 71 +22 +22 комфорт 1016.3 968.3
12 12.09 С 2 20 км н/о +18.7 +14.4 76 +20 +20 1016.6 968.4 +25.0
13 12.09 З 1 20 км н/о +18.1 +14.6 80 +19 +19 1016.6 968.3
15 12.09 ЮВ 1 20 км н/о +18.0 +14.9 82 +20 +20 1016.3 968.0
16 12.09 В 1 20 км н/о +17.9 +15.2 84 +19 +19 1015.9 967.6
18 12.09 СВ 1 20 км н/о +17.8 +15.1 84 +19 +19 1015.2 966.9
19 12.09 ЮВ 1 20 км н/о +18.2 +15.7 85 +20 +20 1015.1 966.9
20 12.09 В 1 20 км н/о +17.3 +15.3 88 +18 +18 1015.6 967.2
21 12.09 В 2 20 км н/о +17.8 +15.4 86 +19 +19 1015.7 967.4
22 12.09 Ю 1 20 км н/о +18.2 +15.7 85 +20 +20 1015.7 967.4
23 12.09 З 2 20 км н/о +20.3 +15.1 72 +23 +23 комфорт 1015.6 967.7
00 13.09 ЮЗ 5 20 км н/о +20.4 +15.0 71 +23 +23 комфорт 1015.9 968.0 +17.3
01 13.09 З 4 20 км н/о +20.7 +15.1 70 +24 +24 комфорт 1015.7 967.9
02 13.09 З 4 20 км н/о +21.9 +15.0 65 +25 +25 комфорт 1015.2 967.6
03 13.09 ЮЗ 5 20 км н/о +22.3 +15.4 65 +26 +26 жарко 1014.7 967.2
04 13.09 З 4 20 км н/о +21.8 +15.2 66 +25 +25 комфорт 1014.5 966.9
05 13.09 ЮЗ 6 20 км н/о +22.9 +15.5 63 +27 +27 душно 1014.0 966.7
06 13.09 ЮЗ 4 20 км н/о +23.0 +15.6 63 +27 +27 душно 1013.7 966.4
08 13.09 З 6 20 км н/о +21.5 +15.4 68 +25 +25 комфорт 1014.5 966.9
09 13.09 ЮЗ 6 20 км н/о +20.5 +15.1 71 +23 +23 комфорт 1014.6 966.8
10 13.09 З 6 20 км н/о +20.2 +14.8 71 +22 +22 комфорт 1015.0 967.1
11 13.09 З 6 20 км н/о +19.8 +14.8 73 +22 +22 комфорт 1015.8 967.8
12 13.09 ЮЗ 6 20 км н/о +20.0 +14.6 71 +22 +22 комфорт 1016.4 968.4 +24.0
13 13.09 ЮЗ 5 20 км н/о +19.7 +14.5 72 +21 +21 комфорт 1016.3 968.3
14 13.09 ЮЗ 5 20 км н/о +19.1 +14.2 73 +20 +20 1016.2 968.1
15 13.09 З 5 20 км н/о +18.8 +14.1 74 +19 +19 1016.1 967.9
16 13.09 З 4 20 км н/о +19.2 +14.0 72 +21 +21 комфорт 1016.0 967.9
17 13.09 ЮЗ 4 20 км н/о +19.5 +13.5 68 +21 +21 комфорт 1015.7 967.7
18 13.09 З 5 20 км н/о +19.5 +13.2 67 +21 +21 комфорт 1015.1 967.1
19 13.09 З 5 20 км н/о +19.1 +13.1 68 +20 +20 1015.4 967.3
21 13.09 ЮЗ 4 20 км н/о +18.2 +13.7 75 +18 +18 1015.8 967.5
00 14.09 ЮЗ 4 20 км н/о +22.6 +13.7 57 +26 +26 жарко 1014.2 966.8 +18.2
01 14.09 ЮЗ 3 20 км н/о +24.4 +14.8 55 +27 +27 жарко 1013.5 966.4
02 14.09 Ю 3 20 км н/о +25.2 +14.7 52 +28 +28 жарко 1012.7 965.8
03 14.09 ЮЗ 3 20 км н/о +26.5 +15.6 51 +30 +30 душно 1011.4 964.8
04 14.09 Ю 2 20 км н/о +28.4 +15.3 45 +31 +31 душно 1010.4 964.1
05 14.09 З 2 20 км н/о +27.4 +14.8 46 +30 +30 жарко 1009.8 963.4
06 14.09 З 4 20 км н/о +28.5 +15.1 44 +31 +31 душно 1008.8 962.6
07 14.09 З 3 20 км н/о +28.9 +15.8 45 +32 +32 душно 1008.6 962.5
08 14.09 З 4 20 км н/о +26.8 +15.5 50 +30 +30 душно 1009.6 963.1
09 14.09 ЮЗ 6 20 км н/о +25.1 +15.2 54 +28 +28 жарко 1010.4 963.6
10 14.09 З 4 20 км н/о +23.9 +15.4 59 +27 +27 жарко 1011.4 964.4
11 14.09 З 4 20 км н/о +23.4 +15.5 61 +28 +28 душно 1012.1 964.9
12 14.09 З 5 20 км н/о +22.6 +15.9 66 +27 +27 душно 1012.3 965.0 +29.2
13 14.09 З 7 20 км н/о +22.0 +16.1 69 +26 +26 душно 1012.2 964.8
14 14.09 З 4 20 км н/о +21.7 +16.2 71 +25 +25 комфорт 1012.2 964.7
15 14.09 З 3 20 км н/о +21.7 +16.4 72 +26 +26 душно 1012.3 964.8
16 14.09 З 3 20 км н/о +21.6 +16.4 72 +25 +25 комфорт 1011.9 964.4
17 14.09 ЮЗ 3 20 км н/о +21.5 +16.5 73 +25 +25 комфорт 1011.8 964.3
18 14.09 З 2 20 км н/о +20.1 +16.9 82 +24 +24 комфорт 1012.2 964.4
19 14.09 З 3 20 км н/о +21.0 +16.8 77 +25 +25 комфорт 1011.8 964.2
20 14.09 З 4 20 км н/о +20.5 +16.5 78 +24 +24 комфорт 1011.8 964.1
21 14.09 З 2 20 км н/о +20.4 +16.5 78 +24 +24 комфорт 1012.1 964.4
22 14.09 В 1 20 км н/о +20.5 +17.3 82 +25 +25 комфорт 1011.9 964.2
23 14.09 ЮЗ 1 20 км н/о +21.8 +17.4 76 +26 +26 душно 1011.5 964.1
00 15.09 ЮЗ 2 20 км н/о +24.2 +17.7 67 +28 +28 душно 1010.7 963.7 +19.1
01 15.09 Ю 2 20 км н/о +25.7 +17.9 62 +30 +30 душно 1009.8 963.1
02 15.09 ЮВ 2 20 км н/о +26.8 +17.0 55 +31 +31 душно 1009.1 962.6
03 15.09 ЮВ 3 20 км н/о +27.8 +16.8 51 +31 +31 душно 1007.8 961.6
04 15.09 Ю 1 20 км н/о +29.0 +17.9 51 +33 +33 очень
душно
1006.7 960.7
05 15.09 Ю 2 20 км н/о +29.6 +17.8 49 +34 +34 очень
душно
1006.0 960.1
06 15.09 С 3 20 км н/о +28.4 +19.1 57 +34 +34 очень
душно
1005.9 959.8
07 15.09 С 3 20 км н/о +27.6 +19.7 62 +33 +33 очень
душно
1006.0 959.8
08 15.09 С 4 20 км н/о +26.0 +19.2 66 +31 +31 очень
душно
1006.4 959.9
09 15.09 ЮЗ 1 20 км н/о +25.3 +19.0 68 +30 +30 душно 1007.0 960.4
10 15.09 ЮЗ 2 20 км н/о +24.0 +18.9 73 +29 +29 душно 1007.7 960.8
11 15.09 З 3 20 км н/о +22.2 +19.2 83 +28 +28 душно 1008.5 961.3
12 15.09 З 3 20 км н/о +22.3 +19.1 82 +28 +28 душно 1008.2 961.0 +30.7
13 15.09 З 3 20 км н/о +22.4 +18.2 77 +28 +28 душно 1007.7 960.6
14 15.09 В 2 20 км н/о +21.2 +18.8 86 +26 +26 душно 1007.6 960.3
16 15.09 С 1 20 км н/о +20.2 +18.2 88 +25 +25 комфорт 1007.2 959.7
17 15.09 З 1 20 км н/о +19.8 +17.9 89 +24 +24 комфорт 1007.2 959.6
18 15.09 В 1 20 км н/о +20.2 +18.0 87 +25 +25 комфорт 1006.9 959.4
19 15.09 СЗ 1 20 км н/о +19.8 +17.9 89 +24 +24 комфорт 1006.3 958.8
21 15.09 С 2 16 км слаб. дождь н/о +20.0 +18.5 91 +24 +24 комфорт 1006.5 959.0
22 15.09 В 1 20 км в посл. час дождь н/о +20.3 +18.4 89 +25 +25 комфорт 1006.3 958.9
23 15.09 ЮЗ 1 20 км слаб. дождь н/о +21.4 +19.0 86 +26 +26 душно 1005.7 958.5
00 16.09 Ю 1 20 км в посл. час дождь н/о +22.3 +18.7 80 +28 +28 душно 1004.9 957.9 +19.6 0.0
01 16.09 В 2 20 км н/о +23.3 +18.8 76 +30 +30 очень
душно
1004.4 957.6
02 16.09 В 2 20 км н/о +23.3 +18.8 76 +30 +30 очень
душно
1003.9 957.1
03 16.09 В 3 3300 м слаб. дождь н/о +22.2 +20.8 92 +29 +29 очень
душно
1003.6 956.6
04 16.09 В 3 11 км слаб. дождь н/о +22.7 +20.2 86 +29 +29 очень
душно
1003.1 956.2
05 16.09 В 3 3500 м слаб. дождь н/о +22.4 +20.9 91 +29 +29 очень
душно
1002.9 956.0
06 16.09 В 4 14 км слаб. дождь н/о +22.2 +20.5 90 +29 +29 очень
душно
1003.2 956.2 0.0
07 16.09 СВ 3 20 км в посл. час дождь н/о +23.0 +20.0 83 +30 +30 очень
душно
1003.0 956.2
08 16.09 СВ 4 20 км н/о +22.5 +19.3 82 +28 +28 душно 1003.9 957.0
09 16.09 СВ 3 20 км {дождь} н/о +22.2 +18.8 81 +28 +28 душно 1004.4 957.4
10 16.09 СВ 3 20 км н/о +21.7 +18.9 84 +27 +27 душно 1005.1 958.0
11 16.09 В 2 20 км н/о +21.0 +19.5 91 +26 +26 душно 1005.8 958.5
12 16.09 В 3 20 км {дождь} н/о +20.9 +18.8 88 +26 +26 душно 1006.0 958.7 +23.8 0.0
13 16.09 В 2 20 км н/о +21.0 +18.9 88 +26 +26 душно 1006.5 959.2
14 16.09 СВ 1 20 км н/о +20.9 +19.2 90 +27 +27 душно 1006.9 959.5
15 16.09 СВ 1 20 км н/о +20.9 +19.4 91 +27 +27 душно 1007.3 959.9
16 16.09 С 2 20 км н/о +20.6 +19.1 91 +26 +26 душно 1007.8 960.3
17 16.09 З 2 20 км н/о +20.2 +19.0 93 +25 +25 комфорт 1008.0 960.5
18 16.09 ЮВ 2 20 км н/о +20.3 +19.1 93 +25 +25 комфорт 1008.2 960.7
19 16.09 штиль 0 20 км н/о +20.2 +19.0 93 +24 +24 комфорт 1008.9 961.3
20 16.09 В 2 18 км слаб. дождь н/о +20.2 +19.0 93 +25 +25 комфорт 1009.7 962.1
21 16.09 В 2 9000 м в посл. час дождь н/о +19.8 +19.5 98 +24 +24 комфорт 1010.2 962.5
22 16.09 С 2 20 км н/о +20.9 +19.6 92 +26 +26 душно 1010.1 962.6
23 16.09 С 3 20 км н/о +22.1 +18.5 80 +27 +27 душно 1010.6 963.3
00 17.09 СВ 3 20 км {дождь} н/о +24.9 +18.8 69 +30 +30 душно 1010.0 963.2 +19.7 0.0
01 17.09 С 5 20 км н/о +23.5 +18.8 75 +28 +28 душно 1010.8 963.7
02 17.09 С 5 20 км н/о +24.9 +18.6 68 +30 +30 душно 1010.4 963.6
03 17.09 С 5 20 км н/о +25.7 +19.1 67 +31 +31 очень
душно
1010.1 963.4
04 17.09 С 5 20 км н/о +25.7 +18.6 65 +31 +31 очень
душно
1009.7 963.0
05 17.09 С 5 20 км н/о +25.8 +18.5 64 +31 +31 очень
душно
1009.4 962.8
06 17.09 СВ 5 20 км н/о +25.1 +18.1 65 +29 +29 душно 1009.7 962.9
07 17.09 С 4 20 км н/о +24.5 +17.7 66 +29 +29 душно 1009.9 963.0
08 17.09 С 3 20 км н/о +23.0 +17.9 73 +28 +28 душно 1010.9 963.7
09 17.09 СВ 3 20 км н/о +21.6 +17.6 78 +26 +26 душно 1011.5 964.0
10 17.09 СВ 3 20 км н/о +21.1 +17.5 80 +25 +25 комфорт 1012.0 964.4
11 17.09 С 2 20 км н/о +21.0 +16.8 77 +25 +25 комфорт 1011.9 964.3
12 17.09 СВ 3 20 км н/о +21.2 +15.7 71 +24 +24 комфорт 1012.3 964.7 +26.6
13 17.09 СВ 1 20 км н/о +20.9 +15.5 71 +25 +25 комфорт 1012.2 964.6

 

Местоположение метеостанции Нагано (Япония): широта 36.67 долгота 138.20 высота над уровнем моря 419 м.

В архиве по умолчанию представлена погода в Нагано за последнюю неделю. Архивные данные за месяц целиком и за предыдущие месяцы, начиная с января 2011 года, Вы можете получить, выбрав интересующий диапазон дат из раскрывающегося списка и нажав кнопку "Ввод!".


*Определитесь, кто Вы:
робот инопланетянин человек

Внимание! Время в таблицах - всемирное. Для получения местного времени необходимо прибавить поправку, которая равна 9 ч.

Смотрите также архив погоды в соседних городах и на ближайших метеорологических станциях:

Погода в Каруидзаве (Япония) (47 км)
Погода в Такаде (Япония) (48 км)
Погода в Мацумото (Япония) (51 км)
Погода в Суве (Япония) (69 км)
Погода в Маебаши (Япония) (83 км)
Погода в Тояме (Япония) (89 км)
Погода в Такаяме (Япония) (103 км)
Погода в Фушики (Япония) (104 км)
Погода в Чичибу (Япония) (109 км)
Погода в Кофу (Япония) (116 км)

Пояснения к столбцам:

Ветер - указаны скорость ветра в м/с - средняя за 10 мин, порывы в срок и между сроками (в фигурных скобках) и направление, откуда дует ветер: С - северный, СВ - северо-восточный, В - восточный, ЮВ - юго-восточный, Ю - южный, ЮЗ - юго-западный, З - западный, СЗ - северо-западный.
Видимость - горизонтальная дальность видимости в метрах или километрах. При видимости от 1 до 10 км при отсутствии осадков обычно наблюдается дымка, при ухудшении видимости до 1 км и менее - туман. В сухую погоду видимость может ухудшаться дымом, пылью или мглою.
Явления - указаны атмосферные явления, наблюдавшиеся в срок или в последний час перед сроком; фигурными скобками обозначены явления, наблюдавшиеся между сроками (за 1-3 часа до срока); квадратными скобками обозначены град или гололедные отложения с указанием их диаметра в мм.
Облачность - указаны через наклонную черту общая и нижняя облачность в баллах и высота нижней границы облаков в метрах; квадратными скобками обозначены формы облаков: Ci - перистые, Cs - перисто-слоистые, Cc - перисто-кучевые, Ac - высококучевые, As - высокослоистые, Sc - слоисто-кучевые, Ns - слоисто-дождевые, Cu - кучевые, Cb - кучево-дождевые. Подробнее классификацию облаков см. в Атласе облаков (PDF).
T - Температура воздуха - температура, измеренная на высоте 2 м над землей.
Td - Температура точки росы - температура, при понижении до которой содержащийся в воздухе водяной пар достигнет насыщения.
f - Относительная влажность воздуха - влажноcть воздуха, измеренная на высоте 2 м над землей.
Te - Эффективная температура - температура, которую ощущает одетый по сезону человек в тени. Характеристика душности погоды. При расчете учитывается влияние влажности воздуха и скорости ветра на теплоощущения человека.
Tes - Эффективная температура на солнце - температура, которую ощущает человек, с поправкой на солнечный нагрев. Характеристика знойности погоды. Зависит от высоты солнца над горизонтом, облачности и скорости ветра. Ночью, в пасмурную погоду, а также при ветре 12 м/с и более поправка равна нулю.
P - Атмосферное давление - приведенное к уровню моря атмосферное давление.
Po - Атмосферное давление - измеренное на уровне метеостанции атмосферное давление.
Tmin - Минимальная температура - минимум температуры воздуха на высоте 2 м над землей.
Tmax - Максимальная температура - максимум температуры воздуха на высоте 2 м над землей.
R - Количество осадков - Количество выпавших осадков за период времени, мм. При наведении курсора мыши на число - период времени, за который выпало указанное количество осадков.
R24 - Количество осадков - Количество выпавших осадков за 24 часа, мм.
S - Снежный покров - Высота снежного покрова, см. При наведении курсора мыши на число - состояние снежного покрова и степень покрытия местности в баллах.